ICEYE-X37

operational
NORAD ID: 59102 Int'l Des: 2024-043 Owner: ICEUS Country: US
LEOCIRCULARRETROGRADESSO

About ICEYE-X37

Description loading...

Live Position

Loading 3D Globe...

Upcoming Passes

Altitude History

Altitude vs Time

uPlot chart will show altitude changes over time

Two-Line Element Set

1 59102U 24043E 26062.18032983 .00007099 00000-0 50197-3 0 9990
2 59102 97.8135 197.6958 0015325 12.5993 347.5613 15.05105924109137
Epoch: Mar 3, 2026 • Age: 21 hours

Current Status

Altitude 567.3 km
Velocity 7.57 km/s
Sub-Earth Point -12.73°S, 102.07°W
Launch Date Mar 4, 2024
Age 1.9 years
Type earth observation

Technical Details

Classification Payload
Mass 90.00 kg
Dry Mass 89.00 kg
Total Mass 90.00 kg
Length 0.70 m
Diameter 0.50 m
Span 3.25 m
Shape Box + pan
Manufacturer ICEUS
Bus Type ICEYE
Phase Status In Orbit
Owner/State ICEUS/US

Large Constellations

Loading constellations...